Time,TemperatureF,DewpointF,PressureIn,WindDirection,WindDirectionDegrees,WindSpeedMPH,WindSpeedGustMPH,Humidity,HourlyPrecipIn,Conditions,Clouds,dailyrainin,SoftwareType,DateUTC
2013-04-09 00:01:00,70.0,59.8,29.65,SSE,158,7.6,12.1,70,0.00,,,0.00,WUHU216HW,2013-04-09 05:01:00,
2013-04-09 00:06:00,70.0,59.8,29.65,SSE,158,10.5,16.1,70,0.00,,,0.00,WUHU216HW,2013-04-09 05:06:00,
2013-04-09 00:11:00,70.0,59.8,29.65,SSE,158,7.6,16.1,70,0.00,,,0.00,WUHU216HW,2013-04-09 05:11:00,
2013-04-09 00:16:00,69.8,59.9,29.65,SSE,158,10.5,14.8,71,0.00,,,0.00,WUHU216HW,2013-04-09 05:16:00,
2013-04-09 00:21:00,69.8,59.9,29.65,SSE,158,13.9,13.9,71,0.00,,,0.00,WUHU216HW,2013-04-09 05:21:00,
2013-04-09 00:26:00,69.8,59.9,29.66,SSE,158,10.5,13.9,71,0.00,,,0.00,WUHU216HW,2013-04-09 05:26:00,
2013-04-09 00:31:00,69.7,60.2,29.66,SSE,158,10.1,14.3,72,0.00,,,0.00,WUHU216HW,2013-04-09 05:31:00,
2013-04-09 00:36:00,69.5,60.0,29.66,SSE,158,10.5,14.3,72,0.00,,,0.00,WUHU216HW,2013-04-09 05:36:00,
2013-04-09 00:41:00,69.5,60.4,29.65,SSE,158,12.1,12.3,73,0.00,,,0.00,WUHU216HW,2013-04-09 05:41:00,
2013-04-09 00:46:00,69.5,60.4,29.65,SSE,158,8.9,15.0,73,0.00,,,0.00,WUHU216HW,2013-04-09 05:46:00,
2013-04-09 00:51:00,69.3,60.2,29.65,SSE,158,7.6,15.0,73,0.00,,,0.00,WUHU216HW,2013-04-09 05:51:00,
2013-04-09 00:56:00,69.1,60.5,29.65,SSE,158,9.2,12.8,74,0.00,,,0.00,WUHU216HW,2013-04-09 05:56:00,
2013-04-09 01:01:00,69.1,60.5,29.65,SSE,158,8.1,13.4,74,0.00,,,0.00,WUHU216HW,2013-04-09 06:01:00,
2013-04-09 01:06:00,68.9,60.3,29.65,SSE,158,6.9,13.4,74,0.00,,,0.00,WUHU216HW,2013-04-09 06:06:00,
2013-04-09 01:11:00,68.9,60.7,29.65,SSE,158,12.3,12.3,75,0.00,,,0.00,WUHU216HW,2013-04-09 06:11:00,
2013-04-09 01:16:00,68.8,60.5,29.65,SSE,158,6.3,12.3,75,0.00,,,0.00,WUHU216HW,2013-04-09 06:16:00,
2013-04-09 01:21:00,68.8,60.5,29.65,SSE,158,7.4,14.8,75,0.00,,,0.00,WUHU216HW,2013-04-09 06:21:00,
2013-04-09 01:26:00,68.8,60.5,29.65,SSE,158,7.4,14.8,75,0.00,,,0.00,WUHU216HW,2013-04-09 06:26:00,
2013-04-09 01:31:00,68.8,60.5,29.65,SSE,158,7.6,10.7,75,0.00,,,0.00,WUHU216HW,2013-04-09 06:31:00,
2013-04-09 01:36:00,68.8,60.8,29.65,SSE,158,10.7,10.7,76,0.00,,,0.00,WUHU216HW,2013-04-09 06:36:00,
2013-04-09 01:41:00,68.8,61.3,29.65,SE,135,6.9,12.8,77,0.00,,,0.00,WUHU216HW,2013-04-09 06:41:00,
2013-04-09 01:46:00,68.8,61.3,29.65,SSE,158,13.4,13.4,77,0.00,,,0.00,WUHU216HW,2013-04-09 06:46:00,
2013-04-09 01:51:00,68.9,61.4,29.65,SSW,203,11.6,13.4,77,0.00,,,0.00,WUHU216HW,2013-04-09 06:51:00,
2013-04-09 01:56:00,68.8,61.3,29.65,SE,135,10.7,13.4,77,0.00,,,0.00,WUHU216HW,2013-04-09 06:56:00,
2013-04-09 02:01:00,68.9,61.4,29.65,SSE,158,11.4,14.1,77,0.00,,,0.00,WUHU216HW,2013-04-09 07:01:00,
2013-04-09 02:06:00,68.9,61.4,29.65,SSE,158,8.7,15.4,77,0.00,,,0.00,WUHU216HW,2013-04-09 07:06:00,
2013-04-09 02:11:00,68.9,61.4,29.65,SSE,158,9.8,15.4,77,0.00,,,0.00,WUHU216HW,2013-04-09 07:11:00,
2013-04-09 02:16:00,68.8,61.3,29.64,South,180,6.9,12.5,77,0.00,,,0.00,WUHU216HW,2013-04-09 07:16:00,
2013-04-09 02:21:00,68.8,61.7,29.64,SE,135,8.5,11.9,78,0.00,,,0.00,WUHU216HW,2013-04-09 07:21:00,
2013-04-09 02:26:00,68.8,61.7,29.64,SE,135,9.2,11.9,78,0.00,,,0.00,WUHU216HW,2013-04-09 07:26:00,
2013-04-09 02:31:00,68.8,61.7,29.64,SSE,158,7.6,14.3,78,0.00,,,0.00,WUHU216HW,2013-04-09 07:31:00,
2013-04-09 02:36:00,68.8,61.7,29.63,SE,135,7.8,14.3,78,0.00,,,0.00,WUHU216HW,2013-04-09 07:36:00,
2013-04-09 02:41:00,68.8,61.7,29.63,East,90,11.4,12.3,78,0.00,,,0.00,WUHU216HW,2013-04-09 07:41:00,
2013-04-09 02:46:00,68.8,61.7,29.63,ESE,113,8.5,11.4,78,0.00,,,0.00,WUHU216HW,2013-04-09 07:46:00,
2013-04-09 02:51:00,68.8,61.7,29.63,SE,135,5.6,12.1,78,0.00,,,0.00,WUHU216HW,2013-04-09 07:51:00,
2013-04-09 02:56:00,68.8,61.7,29.63,SE,135,10.5,13.6,78,0.00,,,0.00,WUHU216HW,2013-04-09 07:56:00,
2013-04-09 03:01:00,68.8,61.7,29.62,SE,135,10.1,13.6,78,0.00,,,0.00,WUHU216HW,2013-04-09 08:01:00,
2013-04-09 03:06:00,68.8,62.0,29.62,SSE,158,13.6,15.4,79,0.00,,,0.00,WUHU216HW,2013-04-09 08:06:00,
2013-04-09 03:12:00,68.8,62.0,29.62,SE,135,10.5,15.4,79,0.00,,,0.00,WUHU216HW,2013-04-09 08:12:00,
2013-04-09 03:17:00,68.9,62.2,29.62,SE,135,12.3,16.8,79,0.00,,,0.00,WUHU216HW,2013-04-09 08:17:00,
2013-04-09 03:22:00,68.9,62.2,29.62,SE,135,7.6,17.2,79,0.00,,,0.00,WUHU216HW,2013-04-09 08:22:00,
2013-04-09 03:27:00,68.9,62.2,29.61,SSE,158,12.5,17.2,79,0.00,,,0.00,WUHU216HW,2013-04-09 08:27:00,
2013-04-09 03:32:00,69.1,62.4,29.62,SSE,158,12.5,16.3,79,0.00,,,0.00,WUHU216HW,2013-04-09 08:32:00,
2013-04-09 03:37:00,68.9,62.2,29.61,South,180,8.5,16.3,79,0.00,,,0.00,WUHU216HW,2013-04-09 08:37:00,
2013-04-09 03:42:00,68.9,62.2,29.61,SE,135,8.5,13.4,79,0.00,,,0.00,WUHU216HW,2013-04-09 08:42:00,
2013-04-09 03:47:00,68.9,62.6,29.61,SSE,158,8.9,14.1,80,0.00,,,0.00,WUHU216HW,2013-04-09 08:47:00,
2013-04-09 03:52:00,68.8,62.4,29.61,SE,135,12.8,14.1,80,0.00,,,0.00,WUHU216HW,2013-04-09 08:52:00,
2013-04-09 03:57:00,68.8,62.4,29.61,ESE,113,10.5,14.8,80,0.00,,,0.00,WUHU216HW,2013-04-09 08:57:00,
2013-04-09 04:02:00,68.8,62.4,29.62,SSE,158,12.3,14.8,80,0.00,,,0.00,WUHU216HW,2013-04-09 09:02:00,
2013-04-09 04:07:00,68.9,62.6,29.61,SSE,158,13.9,15.0,80,0.00,,,0.00,WUHU216HW,2013-04-09 09:07:00,
2013-04-09 04:12:00,68.9,62.6,29.61,SSE,158,8.3,16.1,80,0.00,,,0.00,WUHU216HW,2013-04-09 09:12:00,
2013-04-09 04:17:00,69.1,62.7,29.61,SE,135,14.1,18.3,80,0.00,,,0.00,WUHU216HW,2013-04-09 09:17:00,
2013-04-09 04:22:00,69.1,62.7,29.61,SE,135,8.5,18.3,80,0.00,,,0.00,WUHU216HW,2013-04-09 09:22:00,
2013-04-09 04:27:00,69.1,62.7,29.61,SSE,158,10.3,15.0,80,0.00,,,0.00,WUHU216HW,2013-04-09 09:27:00,
2013-04-09 04:32:00,69.1,63.1,29.61,SSE,158,13.0,14.3,81,0.00,,,0.00,WUHU216HW,2013-04-09 09:32:00,
2013-04-09 04:37:00,69.1,62.7,29.61,SSE,158,6.9,14.3,80,0.00,,,0.00,WUHU216HW,2013-04-09 09:37:00,
2013-04-09 04:42:00,69.1,62.7,29.61,SE,135,12.8,16.1,80,0.00,,,0.00,WUHU216HW,2013-04-09 09:42:00,
2013-04-09 04:47:00,69.3,62.9,29.61,SSE,158,12.8,18.8,80,0.00,,,0.00,WUHU216HW,2013-04-09 09:47:00,
2013-04-09 04:52:00,69.3,62.9,29.61,SE,135,11.4,18.8,80,0.00,,,0.00,WUHU216HW,2013-04-09 09:52:00,
2013-04-09 04:57:00,69.3,62.9,29.60,SE,135,9.6,15.7,80,0.00,,,0.00,WUHU216HW,2013-04-09 09:57:00,
2013-04-09 05:02:00,69.5,63.0,29.61,SSE,158,10.5,15.7,80,0.00,,,0.00,WUHU216HW,2013-04-09 10:02:00,
2013-04-09 05:07:00,69.3,62.9,29.61,SSE,158,11.0,17.2,80,0.00,,,0.00,WUHU216HW,2013-04-09 10:07:00,
2013-04-09 05:12:00,69.3,63.2,29.61,SE,135,15.2,17.2,81,0.00,,,0.00,WUHU216HW,2013-04-09 10:12:00,
2013-04-09 05:17:00,69.5,63.4,29.61,SSE,158,14.3,16.1,81,0.00,,,0.00,WUHU216HW,2013-04-09 10:17:00,
2013-04-09 05:22:00,69.5,63.0,29.61,SSE,158,9.8,16.1,80,0.00,,,0.00,WUHU216HW,2013-04-09 10:22:00,
2013-04-09 05:27:00,69.5,63.0,29.61,SSE,158,12.8,15.7,80,0.00,,,0.00,WUHU216HW,2013-04-09 10:27:00,
2013-04-09 05:32:00,69.5,63.4,29.61,SSE,158,12.1,16.3,81,0.00,,,0.00,WUHU216HW,2013-04-09 10:32:00,
2013-04-09 05:37:00,69.5,63.4,29.61,SSE,158,15.7,16.3,81,0.00,,,0.00,WUHU216HW,2013-04-09 10:37:00,
2013-04-09 05:42:00,69.5,63.4,29.61,SSE,158,14.5,16.1,81,0.00,,,0.00,WUHU216HW,2013-04-09 10:42:00,
2013-04-09 05:47:00,69.5,63.4,29.62,SE,135,8.1,15.7,81,0.00,,,0.00,WUHU216HW,2013-04-09 10:47:00,
2013-04-09 05:52:00,69.5,63.4,29.62,SSE,158,11.4,14.1,81,0.00,,,0.00,WUHU216HW,2013-04-09 10:52:00,
2013-04-09 05:57:00,69.5,63.4,29.62,SE,135,12.8,13.9,81,0.00,,,0.00,WUHU216HW,2013-04-09 10:57:00,
2013-04-09 06:02:00,69.7,63.6,29.61,SSE,158,16.3,16.3,81,0.00,,,0.00,WUHU216HW,2013-04-09 11:02:00,
2013-04-09 06:07:00,69.7,63.6,29.61,SSE,158,12.1,16.3,81,0.00,,,0.00,WUHU216HW,2013-04-09 11:07:00,
2013-04-09 06:12:00,69.5,63.4,29.62,SE,135,10.7,16.3,81,0.00,,,0.00,WUHU216HW,2013-04-09 11:12:00,
2013-04-09 06:17:00,69.7,63.6,29.62,SSE,158,14.5,17.9,81,0.00,,,0.00,WUHU216HW,2013-04-09 11:17:00,
2013-04-09 06:22:00,69.7,63.6,29.61,SSE,158,14.8,17.9,81,0.00,,,0.00,WUHU216HW,2013-04-09 11:22:00,
2013-04-09 06:27:00,69.7,63.6,29.62,SSE,158,13.9,17.2,81,0.00,,,0.00,WUHU216HW,2013-04-09 11:27:00,
2013-04-09 06:32:00,69.8,63.7,29.62,SSW,203,12.1,15.9,81,0.00,,,0.00,WUHU216HW,2013-04-09 11:32:00,
2013-04-09 06:37:00,69.7,63.6,29.62,SE,135,11.9,16.1,81,0.00,,,0.00,WUHU216HW,2013-04-09 11:37:00,
2013-04-09 06:42:00,69.7,63.6,29.62,SSE,158,12.8,17.9,81,0.00,,,0.00,WUHU216HW,2013-04-09 11:42:00,
2013-04-09 06:47:00,69.7,63.6,29.62,SSE,158,11.4,17.9,81,0.00,,,0.00,WUHU216HW,2013-04-09 11:47:00,
2013-04-09 06:52:00,69.7,63.6,29.62,SSE,158,11.9,16.3,81,0.00,,,0.00,WUHU216HW,2013-04-09 11:52:00,
2013-04-09 06:57:00,69.7,63.6,29.63,SSE,158,11.0,18.3,81,0.00,,,0.00,WUHU216HW,2013-04-09 11:57:00,
2013-04-09 07:02:00,69.7,63.6,29.63,South,180,13.4,18.3,81,0.00,,,0.00,WUHU216HW,2013-04-09 12:02:00,
2013-04-09 07:07:00,69.7,63.6,29.63,SSE,158,14.1,16.3,81,0.00,,,0.00,WUHU216HW,2013-04-09 12:07:00,
2013-04-09 07:12:00,69.7,63.2,29.63,SSE,158,8.7,21.0,80,0.00,,,0.00,WUHU216HW,2013-04-09 12:12:00,
2013-04-09 07:17:00,69.7,63.2,29.63,SSE,158,10.5,21.0,80,0.00,,,0.00,WUHU216HW,2013-04-09 12:17:00,
2013-04-09 07:22:00,69.7,63.2,29.63,SSW,203,12.3,15.0,80,0.00,,,0.00,WUHU216HW,2013-04-09 12:22:00,
2013-04-09 07:28:00,69.7,63.2,29.63,SSE,158,8.5,15.0,80,0.00,,,0.00,WUHU216HW,2013-04-09 12:28:00,
2013-04-09 07:33:00,69.7,63.2,29.64,SSE,158,12.8,15.4,80,0.00,,,0.00,WUHU216HW,2013-04-09 12:33:00,
2013-04-09 07:38:00,69.7,63.2,29.64,SSE,158,12.1,15.4,80,0.00,,,0.00,WUHU216HW,2013-04-09 12:38:00,
2013-04-09 07:43:00,69.5,63.0,29.64,SSE,158,8.7,15.7,80,0.00,,,0.00,WUHU216HW,2013-04-09 12:43:00,
2013-04-09 07:48:00,69.7,63.2,29.64,SSE,158,14.5,15.7,80,0.00,,,0.00,WUHU216HW,2013-04-09 12:48:00,
2013-04-09 07:53:00,69.5,63.0,29.64,SSE,158,11.6,15.4,80,0.00,,,0.00,WUHU216HW,2013-04-09 12:53:00,
2013-04-09 07:58:00,69.5,63.0,29.64,SE,135,6.9,14.5,80,0.00,,,0.00,WUHU216HW,2013-04-09 12:58:00,
2013-04-09 08:03:00,69.7,63.2,29.64,SSE,158,11.4,13.4,80,0.00,,,0.00,WUHU216HW,2013-04-09 13:03:00,
2013-04-09 08:08:00,69.7,63.2,29.64,SSE,158,16.3,16.3,80,0.00,,,0.00,WUHU216HW,2013-04-09 13:08:00,
2013-04-09 08:13:00,69.7,63.2,29.64,SSE,158,12.8,16.3,80,0.00,,,0.00,WUHU216HW,2013-04-09 13:13:00,
2013-04-09 08:18:00,69.8,63.4,29.64,South,180,15.0,16.3,80,0.00,,,0.00,WUHU216HW,2013-04-09 13:18:00,
2013-04-09 08:23:00,69.8,63.0,29.64,SSE,158,11.9,19.2,79,0.00,,,0.00,WUHU216HW,2013-04-09 13:23:00,
2013-04-09 08:28:00,69.8,63.0,29.65,SSE,158,13.2,19.2,79,0.00,,,0.00,WUHU216HW,2013-04-09 13:28:00,
2013-04-09 08:33:00,70.0,63.2,29.65,South,180,13.4,15.9,79,0.00,,,0.00,WUHU216HW,2013-04-09 13:33:00,
2013-04-09 08:38:00,70.0,63.2,29.65,SE,135,14.3,17.7,79,0.00,,,0.00,WUHU216HW,2013-04-09 13:38:00,
2013-04-09 08:43:00,70.0,63.2,29.65,SSE,158,14.3,17.7,79,0.00,,,0.00,WUHU216HW,2013-04-09 13:43:00,
2013-04-09 08:47:00,70.0,63.2,29.65,SSE,158,18.6,18.6,79,0.00,,,0.00,WUHU216HW,2013-04-09 13:47:00,
2013-04-09 08:53:00,70.0,63.2,29.65,South,180,9.8,18.6,79,0.00,,,0.00,WUHU216HW,2013-04-09 13:53:00,
2013-04-09 08:58:00,70.0,62.8,29.65,South,180,11.9,16.1,78,0.00,,,0.00,WUHU216HW,2013-04-09 13:58:00,
2013-04-09 09:03:00,70.2,63.0,29.65,SSW,203,13.0,17.2,78,0.00,,,0.00,WUHU216HW,2013-04-09 14:03:00,
2013-04-09 09:08:00,70.2,63.0,29.64,SSE,158,14.3,19.9,78,0.00,,,0.00,WUHU216HW,2013-04-09 14:08:00,
2013-04-09 09:13:00,70.6,62.9,29.64,SSE,158,14.5,19.9,77,0.00,,,0.00,WUHU216HW,2013-04-09 14:13:00,
2013-04-09 09:18:00,70.7,63.1,29.64,South,180,13.0,19.9,77,0.00,,,0.00,WUHU216HW,2013-04-09 14:18:00,
2013-04-09 09:23:00,70.9,62.9,29.63,SSE,158,19.2,21.5,76,0.00,,,0.00,WUHU216HW,2013-04-09 14:23:00,
2013-04-09 09:28:00,71.3,63.3,29.64,SSE,158,10.5,21.5,76,0.00,,,0.00,WUHU216HW,2013-04-09 14:28:00,
2013-04-09 09:33:00,71.6,63.3,29.64,SSE,158,12.3,19.2,75,0.00,,,0.00,WUHU216HW,2013-04-09 14:33:00,
2013-04-09 09:38:00,72.0,63.6,29.63,SSE,158,13.0,17.9,75,0.00,,,0.00,WUHU216HW,2013-04-09 14:38:00,
2013-04-09 09:43:00,72.2,63.1,29.63,SSE,158,18.6,18.6,73,0.00,,,0.00,WUHU216HW,2013-04-09 14:43:00,
2013-04-09 09:48:00,72.4,63.6,29.63,SSE,158,15.0,19.5,74,0.00,,,0.00,WUHU216HW,2013-04-09 14:48:00,
2013-04-09 09:53:00,72.7,63.6,29.63,SE,135,12.1,19.5,73,0.00,,,0.00,WUHU216HW,2013-04-09 14:53:00,
2013-04-09 09:58:00,73.1,63.5,29.63,SSE,158,17.4,20.6,72,0.00,,,0.00,WUHU216HW,2013-04-09 14:58:00,
2013-04-09 10:03:00,73.3,63.7,29.63,SSE,158,14.8,20.6,72,0.00,,,0.00,WUHU216HW,2013-04-09 15:03:00,
2013-04-09 10:08:00,73.4,63.5,29.63,SSE,158,12.3,18.3,71,0.00,,,0.00,WUHU216HW,2013-04-09 15:08:00,
2013-04-09 10:13:00,73.6,63.4,29.63,SSE,158,15.4,19.9,70,0.00,,,0.00,WUHU216HW,2013-04-09 15:13:00,
2013-04-09 10:18:00,73.8,64.3,29.63,SSE,158,9.8,19.9,72,0.00,,,0.00,WUHU216HW,2013-04-09 15:18:00,
2013-04-09 10:24:00,74.2,63.8,29.63,SSW,203,16.1,19.0,70,0.00,,,0.00,WUHU216HW,2013-04-09 15:24:00,
2013-04-09 10:29:00,74.3,64.4,29.63,South,180,12.5,19.0,71,0.00,,,0.00,WUHU216HW,2013-04-09 15:29:00,
2013-04-09 10:34:00,74.5,63.7,29.63,South,180,9.8,19.2,69,0.00,,,0.00,WUHU216HW,2013-04-09 15:34:00,
2013-04-09 10:39:00,74.9,63.6,29.63,South,180,18.1,20.1,68,0.00,,,0.00,WUHU216HW,2013-04-09 15:39:00,
2013-04-09 10:45:00,75.1,63.4,29.63,SSW,203,18.3,22.6,67,0.00,,,0.00,WUHU216HW,2013-04-09 15:45:00,
2013-04-09 10:50:00,75.2,63.6,29.63,South,180,17.0,22.6,67,0.00,,,0.00,WUHU216HW,2013-04-09 15:50:00,
2013-04-09 10:55:00,75.6,63.5,29.63,SSE,158,15.0,19.9,66,0.00,,,0.00,WUHU216HW,2013-04-09 15:55:00,
2013-04-09 11:00:00,75.4,63.3,29.63,SSE,158,16.1,21.0,66,0.00,,,0.00,WUHU216HW,2013-04-09 16:00:00,
2013-04-09 11:05:00,75.8,63.6,29.63,SSE,158,21.3,21.3,66,0.00,,,0.00,WUHU216HW,2013-04-09 16:05:00,
2013-04-09 11:10:00,76.3,63.6,29.62,SE,135,11.4,21.3,65,0.00,,,0.00,WUHU216HW,2013-04-09 16:10:00,
2013-04-09 11:15:00,76.7,63.1,29.62,SSE,158,18.8,21.5,63,0.00,,,0.00,WUHU216HW,2013-04-09 16:15:00,
2013-04-09 11:20:00,76.9,63.3,29.62,SSW,203,17.4,21.5,63,0.00,,,0.00,WUHU216HW,2013-04-09 16:20:00,
2013-04-09 11:25:00,77.2,63.2,29.62,SSE,158,13.6,20.4,62,0.00,,,0.00,WUHU216HW,2013-04-09 16:25:00,
2013-04-09 11:30:00,77.6,63.1,29.61,SSE,158,22.1,23.7,61,0.00,,,0.00,WUHU216HW,2013-04-09 16:30:00,
2013-04-09 11:35:00,77.6,63.1,29.61,SSW,203,20.8,23.7,61,0.00,,,0.00,WUHU216HW,2013-04-09 16:35:00,
2013-04-09 11:40:00,78.1,63.6,29.62,South,180,17.4,22.1,61,0.00,,,0.00,WUHU216HW,2013-04-09 16:40:00,
2013-04-09 11:45:00,78.5,63.5,29.62,SSW,203,15.9,23.9,60,0.00,,,0.00,WUHU216HW,2013-04-09 16:45:00,
2013-04-09 11:50:00,78.5,63.0,29.62,South,180,18.3,23.9,59,0.00,,,0.00,WUHU216HW,2013-04-09 16:50:00,
2013-04-09 11:55:00,78.8,63.9,29.62,SSW,203,16.1,22.4,60,0.00,,,0.00,WUHU216HW,2013-04-09 16:55:00,
2013-04-09 12:00:00,79.2,63.7,29.61,SSE,158,19.5,21.5,59,0.00,,,0.00,WUHU216HW,2013-04-09 17:00:00,
2013-04-09 12:05:00,79.2,63.2,29.61,SSW,203,14.3,21.5,58,0.00,,,0.00,WUHU216HW,2013-04-09 17:05:00,
2013-04-09 12:10:00,79.6,63.6,29.61,South,180,20.6,21.5,58,0.00,,,0.00,WUHU216HW,2013-04-09 17:10:00,
2013-04-09 12:15:00,79.6,63.0,29.60,SSE,158,20.1,24.2,57,0.00,,,0.00,WUHU216HW,2013-04-09 17:15:00,
2013-04-09 12:20:00,79.6,64.0,29.61,SSW,203,15.0,24.2,59,0.00,,,0.00,WUHU216HW,2013-04-09 17:20:00,
2013-04-09 12:25:00,79.9,62.8,29.61,South,180,21.9,21.9,56,0.00,,,0.00,WUHU216HW,2013-04-09 17:25:00,
2013-04-09 12:30:00,80.3,63.1,29.61,South,180,19.7,22.4,56,0.00,,,0.00,WUHU216HW,2013-04-09 17:30:00,
2013-04-09 12:35:00,80.3,63.6,29.61,SSE,158,17.9,22.4,57,0.00,,,0.00,WUHU216HW,2013-04-09 17:35:00,
2013-04-09 12:40:00,80.5,63.8,29.61,SW,225,14.3,21.7,57,0.00,,,0.00,WUHU216HW,2013-04-09 17:40:00,
2013-04-09 12:45:00,80.8,63.6,29.61,SSE,158,13.0,21.7,56,0.00,,,0.00,WUHU216HW,2013-04-09 17:45:00,
2013-04-09 12:50:00,81.2,64.4,29.61,South,180,17.2,21.5,57,0.00,,,0.00,WUHU216HW,2013-04-09 17:50:00,
2013-04-09 12:55:00,81.4,64.1,29.61,SSE,158,13.4,19.2,56,0.00,,,0.00,WUHU216HW,2013-04-09 17:55:00,
2013-04-09 13:00:00,81.2,63.4,29.61,South,180,16.6,21.5,55,0.00,,,0.00,WUHU216HW,2013-04-09 18:00:00,
2013-04-09 13:05:00,81.0,63.7,29.61,SSW,203,12.8,21.5,56,0.00,,,0.00,WUHU216HW,2013-04-09 18:05:00,
2013-04-09 13:10:00,81.4,65.2,29.61,SSE,158,11.4,21.7,58,0.00,,,0.00,WUHU216HW,2013-04-09 18:10:00,
2013-04-09 13:15:00,81.5,63.7,29.61,SW,225,14.3,22.1,55,0.00,,,0.00,WUHU216HW,2013-04-09 18:15:00,
2013-04-09 13:20:00,81.4,63.0,29.61,SSW,203,19.9,22.1,54,0.00,,,0.00,WUHU216HW,2013-04-09 18:20:00,
2013-04-09 13:25:00,81.4,64.1,29.61,SSW,203,13.2,21.0,56,0.00,,,0.00,WUHU216HW,2013-04-09 18:25:00,
2013-04-09 13:30:00,81.5,63.7,29.61,SSE,158,17.9,19.9,55,0.00,,,0.00,WUHU216HW,2013-04-09 18:30:00,
2013-04-09 13:35:00,81.4,63.5,29.61,South,180,18.1,20.1,55,0.00,,,0.00,WUHU216HW,2013-04-09 18:35:00,
2013-04-09 13:40:00,81.7,64.5,29.61,SSE,158,13.4,22.1,56,0.00,,,0.00,WUHU216HW,2013-04-09 18:40:00,
2013-04-09 13:45:00,81.7,63.9,29.61,ESE,113,17.9,22.1,55,0.00,,,0.00,WUHU216HW,2013-04-09 18:45:00,
2013-04-09 13:50:00,81.9,64.1,29.61,SSE,158,11.4,21.3,55,0.00,,,0.00,WUHU216HW,2013-04-09 18:50:00,
2013-04-09 13:55:00,82.1,64.2,29.61,SSE,158,15.9,21.7,55,0.00,,,0.00,WUHU216HW,2013-04-09 18:55:00,
2013-04-09 14:00:00,82.1,63.7,29.61,South,180,17.9,21.9,54,0.00,,,0.00,WUHU216HW,2013-04-09 19:00:00,
2013-04-09 14:05:00,81.9,65.1,29.61,SE,135,15.7,21.9,57,0.00,,,0.00,WUHU216HW,2013-04-09 19:05:00,
2013-04-09 14:10:00,81.7,64.5,29.61,South,180,17.9,21.3,56,0.00,,,0.00,WUHU216HW,2013-04-09 19:10:00,
2013-04-09 14:15:00,82.1,64.2,29.61,South,180,14.5,22.6,55,0.00,,,0.00,WUHU216HW,2013-04-09 19:15:00,
2013-04-09 14:20:00,82.3,64.4,29.61,South,180,14.1,22.6,55,0.00,,,0.00,WUHU216HW,2013-04-09 19:20:00,
2013-04-09 14:25:00,82.1,64.7,29.61,South,180,7.2,19.2,56,0.00,,,0.00,WUHU216HW,2013-04-09 19:25:00,
2013-04-09 14:30:00,81.7,63.9,29.61,SSW,203,21.5,21.5,55,0.00,,,0.00,WUHU216HW,2013-04-09 19:30:00,
2013-04-09 14:35:00,81.2,63.4,29.60,SSE,158,13.9,21.5,55,0.00,,,0.00,WUHU216HW,2013-04-09 19:35:00,
2013-04-09 14:40:00,80.8,64.1,29.60,SSE,158,15.9,21.5,57,0.00,,,0.00,WUHU216HW,2013-04-09 19:40:00,
2013-04-09 14:45:00,80.5,64.4,29.60,SSE,158,9.2,19.2,58,0.00,,,0.00,WUHU216HW,2013-04-09 19:45:00,
2013-04-09 14:50:00,80.3,63.6,29.60,SSE,158,16.1,17.2,57,0.00,,,0.00,WUHU216HW,2013-04-09 19:50:00,
2013-04-09 14:55:00,80.1,64.0,29.60,SSE,158,12.3,17.2,58,0.00,,,0.00,WUHU216HW,2013-04-09 19:55:00,
2013-04-09 15:00:00,80.1,64.0,29.60,SSW,203,7.6,16.1,58,0.00,,,0.00,WUHU216HW,2013-04-09 20:00:00,
2013-04-09 15:05:00,79.9,63.8,29.60,SSE,158,17.2,17.2,58,0.00,,,0.00,WUHU216HW,2013-04-09 20:05:00,
2013-04-09 15:10:00,79.6,63.6,29.60,SSE,158,10.7,18.1,58,0.00,,,0.00,WUHU216HW,2013-04-09 20:10:00,
2013-04-09 15:15:00,79.6,63.6,29.60,SE,135,9.2,18.1,58,0.00,,,0.00,WUHU216HW,2013-04-09 20:15:00,
2013-04-09 15:20:00,79.6,63.6,29.60,SE,135,12.5,16.3,58,0.00,,,0.00,WUHU216HW,2013-04-09 20:20:00,
2013-04-09 15:25:00,79.2,63.2,29.60,SE,135,8.3,16.3,58,0.00,,,0.00,WUHU216HW,2013-04-09 20:25:00,
2013-04-09 15:30:00,79.2,63.7,29.60,SSE,158,14.3,16.3,59,0.00,,,0.00,WUHU216HW,2013-04-09 20:30:00,
2013-04-09 15:35:00,78.8,63.4,29.60,SE,135,11.2,16.3,59,0.00,,,0.00,WUHU216HW,2013-04-09 20:35:00,
2013-04-09 15:40:00,78.8,63.4,29.59,SSE,158,13.4,14.5,59,0.00,,,0.00,WUHU216HW,2013-04-09 20:40:00,
2013-04-09 15:45:00,78.7,63.2,29.59,SSE,158,14.1,15.7,59,0.00,,,0.00,WUHU216HW,2013-04-09 20:45:00,
2013-04-09 15:50:00,78.8,63.9,29.59,SE,135,13.2,15.9,60,0.00,,,0.00,WUHU216HW,2013-04-09 20:50:00,
2013-04-09 15:55:00,78.7,63.2,29.59,SE,135,11.4,15.9,59,0.00,,,0.00,WUHU216HW,2013-04-09 20:55:00,
2013-04-09 16:00:00,78.7,63.7,29.58,SSE,158,6.3,13.6,60,0.00,,,0.00,WUHU216HW,2013-04-09 21:00:00,
2013-04-09 16:05:00,78.8,63.9,29.58,SE,135,8.1,15.9,60,0.00,,,0.00,WUHU216HW,2013-04-09 21:05:00,
2013-04-09 16:11:00,78.7,63.7,29.58,SSE,158,11.6,15.9,60,0.00,,,0.00,WUHU216HW,2013-04-09 21:11:00,
2013-04-09 16:16:00,78.8,63.4,29.58,SSE,158,8.5,12.8,59,0.00,,,0.00,WUHU216HW,2013-04-09 21:16:00,
2013-04-09 16:21:00,78.8,63.9,29.58,SE,135,10.5,11.6,60,0.00,,,0.00,WUHU216HW,2013-04-09 21:21:00,
2013-04-09 16:26:00,78.7,63.7,29.58,SE,135,9.4,11.6,60,0.00,,,0.00,WUHU216HW,2013-04-09 21:26:00,
2013-04-09 16:31:00,78.8,63.9,29.58,SSE,158,7.8,12.5,60,0.00,,,0.00,WUHU216HW,2013-04-09 21:31:00,
2013-04-09 16:36:00,78.8,63.9,29.58,SSE,158,5.4,12.5,60,0.00,,,0.00,WUHU216HW,2013-04-09 21:36:00,
2013-04-09 16:41:00,78.8,63.9,29.58,SSE,158,7.8,13.0,60,0.00,,,0.00,WUHU216HW,2013-04-09 21:41:00,
2013-04-09 16:46:00,78.7,64.2,29.58,SSE,158,4.9,13.0,61,0.00,,,0.00,WUHU216HW,2013-04-09 21:46:00,
2013-04-09 16:51:00,78.5,64.0,29.58,South,180,10.3,10.7,61,0.00,,,0.00,WUHU216HW,2013-04-09 21:51:00,
2013-04-09 16:57:00,78.7,64.2,29.58,SSE,158,9.8,11.2,61,0.00,,,0.00,WUHU216HW,2013-04-09 21:57:00,
2013-04-09 17:02:00,78.7,64.2,29.58,SE,135,6.0,11.2,61,0.00,,,0.00,WUHU216HW,2013-04-09 22:02:00,
2013-04-09 17:07:00,78.7,64.6,29.58,SSE,158,6.3,10.1,62,0.00,,,0.00,WUHU216HW,2013-04-09 22:07:00,
2013-04-09 17:12:00,78.8,64.4,29.58,SSE,158,7.4,10.1,61,0.00,,,0.00,WUHU216HW,2013-04-09 22:12:00,
2013-04-09 17:17:00,79.2,64.6,29.58,SE,135,8.1,10.5,61,0.00,,,0.00,WUHU216HW,2013-04-09 22:17:00,
2013-04-09 17:22:00,79.4,64.4,29.58,SE,135,8.5,10.5,60,0.00,,,0.00,WUHU216HW,2013-04-09 22:22:00,
2013-04-09 17:27:00,79.6,64.5,29.58,SE,135,6.9,10.5,60,0.00,,,0.00,WUHU216HW,2013-04-09 22:27:00,
2013-04-09 17:32:00,79.6,64.5,29.58,SSE,158,8.5,10.5,60,0.00,,,0.00,WUHU216HW,2013-04-09 22:32:00,
2013-04-09 17:37:00,79.6,64.5,29.58,SE,135,7.2,9.6,60,0.00,,,0.00,WUHU216HW,2013-04-09 22:37:00,
2013-04-09 17:42:00,79.6,64.0,29.58,South,180,8.5,9.4,59,0.00,,,0.00,WUHU216HW,2013-04-09 22:42:00,
2013-04-09 17:47:00,79.6,64.5,29.58,SSE,158,7.6,9.4,60,0.00,,,0.00,WUHU216HW,2013-04-09 22:47:00,
2013-04-09 17:52:00,79.6,64.5,29.59,SE,135,3.4,8.3,60,0.00,,,0.00,WUHU216HW,2013-04-09 22:52:00,
2013-04-09 17:57:00,79.6,64.0,29.59,SE,135,6.9,8.5,59,0.00,,,0.00,WUHU216HW,2013-04-09 22:57:00,
2013-04-09 18:02:00,79.6,64.0,29.59,SE,135,6.5,10.7,59,0.00,,,0.00,WUHU216HW,2013-04-09 23:02:00,
2013-04-09 18:07:00,79.6,64.0,29.59,SE,135,6.5,10.7,59,0.00,,,0.00,WUHU216HW,2013-04-09 23:07:00,
2013-04-09 18:12:00,79.6,64.5,29.59,SE,135,5.8,7.6,60,0.00,,,0.00,WUHU216HW,2013-04-09 23:12:00,
2013-04-09 18:17:00,79.6,64.5,29.59,SE,135,3.6,7.4,60,0.00,,,0.00,WUHU216HW,2013-04-09 23:17:00,
2013-04-09 18:22:00,79.7,64.7,29.59,SE,135,7.2,7.6,60,0.00,,,0.00,WUHU216HW,2013-04-09 23:22:00,
2013-04-09 18:27:00,79.7,64.7,29.59,SE,135,4.3,7.6,60,0.00,,,0.00,WUHU216HW,2013-04-09 23:27:00,
2013-04-09 18:32:00,79.7,64.7,29.59,SE,135,5.4,7.2,60,0.00,,,0.00,WUHU216HW,2013-04-09 23:32:00,
2013-04-09 18:37:00,79.7,64.7,29.59,SSE,158,4.9,6.5,60,0.00,,,0.00,WUHU216HW,2013-04-09 23:37:00,
2013-04-09 18:42:00,79.6,64.5,29.59,SSE,158,3.4,6.5,60,0.00,,,0.00,WUHU216HW,2013-04-09 23:42:00,
2013-04-09 18:47:00,79.6,64.5,29.59,SSE,158,6.3,6.3,60,0.00,,,0.00,WUHU216HW,2013-04-09 23:47:00,
2013-04-09 18:52:00,79.6,64.5,29.59,SSE,158,3.6,6.3,60,0.00,,,0.00,WUHU216HW,2013-04-09 23:52:00,
2013-04-09 18:57:00,79.4,64.8,29.58,SSE,158,2.9,6.3,61,0.00,,,0.00,WUHU216HW,2013-04-09 23:57:00,
2013-04-09 19:02:00,79.2,64.6,29.58,SE,135,3.4,4.9,61,0.00,,,0.00,WUHU216HW,2013-04-10 00:02:00,
2013-04-09 19:08:00,79.0,64.5,29.58,SE,135,2.9,4.7,61,0.00,,,0.00,WUHU216HW,2013-04-10 00:08:00,
2013-04-09 19:13:00,78.8,64.4,29.58,SE,135,3.4,4.7,61,0.00,,,0.00,WUHU216HW,2013-04-10 00:13:00,
2013-04-09 19:18:00,78.8,64.8,29.58,SE,135,2.5,4.7,62,0.00,,,0.00,WUHU216HW,2013-04-10 00:18:00,
2013-04-09 19:23:00,78.8,64.8,29.58,ESE,113,4.0,5.8,62,0.00,,,0.00,WUHU216HW,2013-04-10 00:23:00,
2013-04-09 19:28:00,78.7,64.6,29.58,SSE,158,4.7,6.9,62,0.00,,,0.00,WUHU216HW,2013-04-10 00:28:00,
2013-04-09 19:33:00,78.3,64.3,29.58,SE,135,4.3,6.9,62,0.00,,,0.00,WUHU216HW,2013-04-10 00:33:00,
2013-04-09 19:38:00,78.1,64.1,29.57,SE,135,5.4,6.3,62,0.00,,,0.00,WUHU216HW,2013-04-10 00:38:00,
2013-04-09 19:43:00,77.9,64.4,29.57,SSE,158,6.9,7.6,63,0.00,,,0.00,WUHU216HW,2013-04-10 00:43:00,
2013-04-09 19:48:00,77.9,64.4,29.57,ESE,113,5.8,9.2,63,0.00,,,0.00,WUHU216HW,2013-04-10 00:48:00,
2013-04-09 19:53:00,77.8,64.2,29.58,SE,135,6.9,9.2,63,0.00,,,0.00,WUHU216HW,2013-04-10 00:53:00,
2013-04-09 19:58:00,77.6,64.0,29.57,SE,135,4.9,6.9,63,0.00,,,0.00,WUHU216HW,2013-04-10 00:58:00,
2013-04-09 20:03:00,77.4,63.8,29.57,SSE,158,7.4,8.9,63,0.00,,,0.00,WUHU216HW,2013-04-10 01:03:00,
2013-04-09 20:08:00,77.4,63.8,29.57,SE,135,7.6,9.8,63,0.00,,,0.00,WUHU216HW,2013-04-10 01:08:00,
2013-04-09 20:13:00,77.4,64.3,29.57,SSE,158,6.9,10.7,64,0.00,,,0.00,WUHU216HW,2013-04-10 01:13:00,
2013-04-09 20:18:00,77.4,64.3,29.56,SE,135,8.1,12.1,64,0.00,,,0.00,WUHU216HW,2013-04-10 01:18:00,
2013-04-09 20:23:00,77.4,64.3,29.56,SE,135,6.7,12.1,64,0.00,,,0.00,WUHU216HW,2013-04-10 01:23:00,
2013-04-09 20:28:00,77.2,64.1,29.56,SSE,158,8.5,11.6,64,0.00,,,0.00,WUHU216HW,2013-04-10 01:28:00,
2013-04-09 20:33:00,77.2,64.5,29.57,SSE,158,10.5,12.5,65,0.00,,,0.00,WUHU216HW,2013-04-10 01:33:00,
2013-04-09 20:38:00,77.4,64.7,29.57,SSE,158,11.4,12.5,65,0.00,,,0.00,WUHU216HW,2013-04-10 01:38:00,
2013-04-09 20:43:00,77.4,65.2,29.57,SE,135,13.6,14.1,66,0.00,,,0.00,WUHU216HW,2013-04-10 01:43:00,
2013-04-09 20:48:00,77.6,65.4,29.58,SSE,158,8.7,15.0,66,0.00,,,0.00,WUHU216HW,2013-04-10 01:48:00,
2013-04-09 20:53:00,77.6,65.4,29.58,SSE,158,10.1,15.0,66,0.00,,,0.00,WUHU216HW,2013-04-10 01:53:00,
2013-04-09 20:58:00,77.6,65.4,29.59,SSE,158,16.3,16.3,66,0.00,,,0.00,WUHU216HW,2013-04-10 01:58:00,
2013-04-09 21:03:00,77.6,65.4,29.59,SE,135,9.6,16.3,66,0.00,,,0.00,WUHU216HW,2013-04-10 02:03:00,
2013-04-09 21:08:00,77.4,65.6,29.59,SSE,158,16.8,16.8,67,0.00,,,0.00,WUHU216HW,2013-04-10 02:08:00,
2013-04-09 21:13:00,77.4,65.6,29.60,SSE,158,12.5,16.8,67,0.00,,,0.00,WUHU216HW,2013-04-10 02:13:00,
2013-04-09 21:18:00,77.4,65.6,29.60,South,180,9.8,15.9,67,0.00,,,0.00,WUHU216HW,2013-04-10 02:18:00,
2013-04-09 21:23:00,77.2,65.4,29.60,SE,135,10.7,15.9,67,0.00,,,0.00,WUHU216HW,2013-04-10 02:23:00,
2013-04-09 21:28:00,77.2,65.9,29.60,SE,135,9.4,15.0,68,0.00,,,0.00,WUHU216HW,2013-04-10 02:28:00,
2013-04-09 21:33:00,77.0,65.7,29.61,SE,135,12.1,14.3,68,0.00,,,0.00,WUHU216HW,2013-04-10 02:33:00,
2013-04-09 21:38:00,76.9,65.5,29.61,SSE,158,5.4,14.5,68,0.00,,,0.00,WUHU216HW,2013-04-10 02:38:00,
2013-04-09 21:43:00,76.7,65.8,29.62,SE,135,11.4,14.5,69,0.00,,,0.00,WUHU216HW,2013-04-10 02:43:00,
2013-04-09 21:48:00,76.7,65.8,29.62,SSE,158,8.7,15.4,69,0.00,,,0.00,WUHU216HW,2013-04-10 02:48:00,
2013-04-09 21:53:00,76.5,65.6,29.62,SE,135,5.1,15.4,69,0.00,,,0.00,WUHU216HW,2013-04-10 02:53:00,
2013-04-09 21:58:00,76.3,65.4,29.63,SSE,158,8.1,11.2,69,0.00,,,0.00,WUHU216HW,2013-04-10 02:58:00,
2013-04-09 22:03:00,76.1,65.3,29.63,ESE,113,9.2,11.0,69,0.00,,,0.00,WUHU216HW,2013-04-10 03:03:00,
2013-04-09 22:08:00,76.1,65.3,29.64,SE,135,7.6,13.9,69,0.00,,,0.00,WUHU216HW,2013-04-10 03:08:00,
2013-04-09 22:13:00,76.0,65.5,29.64,SSE,158,11.6,13.9,70,0.00,,,0.00,WUHU216HW,2013-04-10 03:13:00,
2013-04-09 22:18:00,76.0,65.5,29.65,SSE,158,9.8,12.8,70,0.00,,,0.00,WUHU216HW,2013-04-10 03:18:00,
2013-04-09 22:23:00,76.0,65.5,29.65,SE,135,6.3,12.8,70,0.00,,,0.00,WUHU216HW,2013-04-10 03:23:00,
2013-04-09 22:28:00,76.0,65.5,29.65,SSE,158,8.1,12.1,70,0.00,,,0.00,WUHU216HW,2013-04-10 03:28:00,
2013-04-09 22:33:00,76.0,65.5,29.65,SE,135,12.1,12.1,70,0.00,,,0.00,WUHU216HW,2013-04-10 03:33:00,
2013-04-09 22:38:00,76.0,65.5,29.65,ESE,113,7.6,16.3,70,0.00,,,0.00,WUHU216HW,2013-04-10 03:38:00,
2013-04-09 22:43:00,76.0,65.9,29.65,SSE,158,9.4,16.3,71,0.00,,,0.00,WUHU216HW,2013-04-10 03:43:00,
2013-04-09 22:48:00,76.0,65.9,29.65,SE,135,11.6,16.1,71,0.00,,,0.00,WUHU216HW,2013-04-10 03:48:00,
2013-04-09 22:53:00,76.0,65.9,29.65,SSE,158,12.8,16.1,71,0.00,,,0.00,WUHU216HW,2013-04-10 03:53:00,
2013-04-09 22:58:00,75.8,65.7,29.65,SSE,158,10.1,15.7,71,0.00,,,0.00,WUHU216HW,2013-04-10 03:58:00,
2013-04-09 23:00:00,75.6,65.5,29.65,SSE,158,11.9,15.7,71,0.00,,,0.00,WUHU216HW,2013-04-10 04:00:00,
2013-04-09 23:05:00,75.2,65.2,29.65,SSE,158,13.4,13.4,71,0.00,,,0.00,WUHU216HW,2013-04-10 04:05:00,
2013-04-09 23:10:00,75.2,65.2,29.65,SSE,158,12.8,17.0,71,0.00,,,0.00,WUHU216HW,2013-04-10 04:10:00,
2013-04-09 23:15:00,75.1,65.1,29.65,SSE,158,9.8,17.0,71,0.00,,,0.00,WUHU216HW,2013-04-10 04:15:00,
2013-04-09 23:20:00,74.9,65.3,29.65,SSE,158,7.2,13.4,72,0.00,,,0.00,WUHU216HW,2013-04-10 04:20:00,
2013-04-09 23:25:00,74.7,65.5,29.65,SSE,158,13.4,15.2,73,0.00,,,0.00,WUHU216HW,2013-04-10 04:25:00,
2013-04-09 23:30:00,74.5,65.4,29.65,SE,135,9.2,15.2,73,0.00,,,0.00,WUHU216HW,2013-04-10 04:30:00,
2013-04-09 23:35:00,74.5,65.4,29.65,SE,135,9.8,15.4,73,0.00,,,0.00,WUHU216HW,2013-04-10 04:35:00,
2013-04-09 23:40:00,74.3,65.5,29.64,SE,135,12.1,15.4,74,0.00,,,0.00,WUHU216HW,2013-04-10 04:40:00,
2013-04-09 23:45:00,74.3,65.5,29.64,SE,135,15.0,17.2,74,0.00,,,0.00,WUHU216HW,2013-04-10 04:45:00,
2013-04-09 23:50:00,74.3,65.5,29.64,SSE,158,9.6,18.8,74,0.00,,,0.00,WUHU216HW,2013-04-10 04:50:00,
2013-04-09 23:55:00,74.3,65.5,29.65,SSE,158,10.5,18.8,74,0.00,,,0.00,WUHU216HW,2013-04-10 04:55:00,